When you browse on this site, cookies collect data to enhance your experience and personalize the content and advertising you see.
Visit our Privacy Policy to learn more. By continuing to use the site, you agree to this use of cookies and data.
  • In Schweiz
  • Länderverzeichnis
  • Für 7 Tage
  • Wassertemperatur
  • Wetterkarte
  • Widgets
  • user-avatar
    Anmelden

    Stündliche Wetter Djelfa

    Heute, 1 Juni, Montag

    Zeit Temperatur Niederschläge Wind Luftdruck Luftfeuchtigkeit
    00:00 +21°C° 0 mm 9 m/S 663 mmHg 59%
    01:00 +20°C° 0 mm 7 m/S 663 mmHg 61%
    02:00 +20°C° 0 mm 5 m/S 663 mmHg 62%
    03:00 +20°C° 0 mm 3 m/S 662 mmHg 63%
    04:00 +20°C° 0 mm 2 m/S 663 mmHg 62%
    05:00 +20°C° 0 mm 2 m/S 663 mmHg 60%
    06:00 +21°C° 0 mm 2 m/S 664 mmHg 60%
    07:00 +22°C° 0 mm 3 m/S 664 mmHg 56%
    08:00 +23°C° 0 mm 4 m/S 665 mmHg 51%
    09:00 +26°C° 0 mm 5 m/S 665 mmHg 47%
    10:00 +27°C° 0 mm 5 m/S 665 mmHg 42%
    11:00 +28°C° 0 mm 5 m/S 665 mmHg 37%
    12:00 +29°C° 0 mm 5 m/S 665 mmHg 32%
    13:00 +30°C° 0 mm 5 m/S 665 mmHg 29%
    14:00 +30°C° 0 mm 5 m/S 665 mmHg 27%
    15:00 +32°C° 0 mm 5 m/S 665 mmHg 24%
    16:00 +30°C° 0 mm 6 m/S 665 mmHg 24%
    17:00 +30°C° 0 mm 6 m/S 665 mmHg 24%
    18:00 +30°C° 0 mm 6 m/S 665 mmHg 25%
    19:00 +28°C° 0 mm 6 m/S 665 mmHg 35%
    20:00 +26°C° 0 mm 5 m/S 665 mmHg 45%
    21:00 +23°C° 0 mm 5 m/S 665 mmHg 55%
    22:00 +23°C° 0 mm 4 m/S 665 mmHg 58%
    23:00 +22°C° 0 mm 3 m/S 665 mmHg 61%

    Morgen, 2 Juni, Dienstag

    Zeit Temperatur Niederschläge Wind Luftdruck Luftfeuchtigkeit
    00:00 +21°C° 0 mm 2 m/S 665 mmHg 64%
    01:00 +22°C° 0 mm 1 m/S 665 mmHg 65%
    02:00 +21°C° 0 mm 1 m/S 665 mmHg 67%
    03:00 +19°C° 0 mm 0 m/S 664 mmHg 68%
    04:00 +22°C° 0 mm 1 m/S 665 mmHg 64%
    05:00 +22°C° 0 mm 1 m/S 665 mmHg 61%
    06:00 +23°C° 0 mm 1 m/S 665 mmHg 57%
    07:00 +24°C° 0 mm 1 m/S 666 mmHg 49%
    08:00 +26°C° 0 mm 2 m/S 666 mmHg 40%
    09:00 +27°C° 0 mm 2 m/S 667 mmHg 31%
    10:00 +29°C° 0 mm 3 m/S 667 mmHg 26%
    11:00 +30°C° 0 mm 3 m/S 667 mmHg 21%
    12:00 +32°C° 0 mm 4 m/S 667 mmHg 17%
    13:00 +32°C° 0 mm 4 m/S 666 mmHg 16%
    14:00 +33°C° 0 mm 5 m/S 666 mmHg 15%
    15:00 +33°C° 0 mm 6 m/S 666 mmHg 14%
    16:00 +32°C° 0 mm 5 m/S 665 mmHg 15%
    17:00 +32°C° 0 mm 5 m/S 665 mmHg 17%
    18:00 +30°C° 0 mm 4 m/S 664 mmHg 18%
    19:00 +29°C° 0 mm 4 m/S 664 mmHg 21%
    20:00 +27°C° 0 mm 4 m/S 665 mmHg 25%
    21:00 +26°C° 0 mm 4 m/S 665 mmHg 28%
    22:00 +25°C° 0 mm 3 m/S 665 mmHg 32%
    23:00 +25°C° 0 mm 2 m/S 664 mmHg 36%

    übermorgen, 3 Juni, Mittwoch

    Zeit Temperatur Niederschläge Wind Luftdruck Luftfeuchtigkeit
    00:00 +24°C° 0 mm 1 m/S 664 mmHg 41%
    01:00 +23°C° 0 mm 2 m/S 664 mmHg 42%
    02:00 +23°C° 0 mm 2 m/S 664 mmHg 44%
    03:00 +23°C° 0 mm 2 m/S 663 mmHg 46%
    04:00 +23°C° 0 mm 2 m/S 663 mmHg 46%
    05:00 +23°C° 0 mm 2 m/S 663 mmHg 46%
    06:00 +24°C° 0 mm 2 m/S 663 mmHg 46%
    07:00 +25°C° 0 mm 3 m/S 664 mmHg 41%
    08:00 +27°C° 0 mm 4 m/S 664 mmHg 37%
    09:00 +28°C° 0 mm 4 m/S 665 mmHg 32%
    10:00 +29°C° 0 mm 4 m/S 665 mmHg 29%
    11:00 +32°C° 0 mm 4 m/S 665 mmHg 25%
    12:00 +33°C° 0 mm 4 m/S 664 mmHg 22%
    13:00 +33°C° 0 mm 4 m/S 664 mmHg 20%
    14:00 +33°C° 0 mm 5 m/S 664 mmHg 19%
    15:00 +33°C° 0 mm 5 m/S 663 mmHg 17%
    16:00 +33°C° 0 mm 6 m/S 663 mmHg 17%
    17:00 +32°C° 0 mm 6 m/S 663 mmHg 17%
    18:00 +30°C° 0 mm 7 m/S 663 mmHg 17%
    19:00 +29°C° 0 mm 6 m/S 663 mmHg 21%
    20:00 +27°C° 0 mm 6 m/S 663 mmHg 24%
    21:00 +26°C° 0 mm 5 m/S 663 mmHg 27%
    22:00 +25°C° 0 mm 4 m/S 663 mmHg 30%
    23:00 +24°C° 0 mm 3 m/S 662 mmHg 34%

    4 Juni, Donnerstag

    Zeit Temperatur Niederschläge Wind Luftdruck Luftfeuchtigkeit
    00:00 +24°C° 0 mm 3 m/S 662 mmHg 37%
    01:00 +22°C° 0 mm 3 m/S 662 mmHg 40%
    02:00 +22°C° 0 mm 3 m/S 661 mmHg 42%
    03:00 +22°C° 0 mm 4 m/S 661 mmHg 44%
    04:00 +22°C° 0 mm 4 m/S 661 mmHg 44%
    05:00 +22°C° 0 mm 4 m/S 661 mmHg 44%
    06:00 +24°C° 0 mm 3 m/S 661 mmHg 45%
    07:00 +25°C° 0 mm 3 m/S 661 mmHg 41%
    08:00 +26°C° 0 mm 3 m/S 661 mmHg 37%
    09:00 +27°C° 0 mm 3 m/S 662 mmHg 32%
    10:00 +28°C° 0 mm 3 m/S 662 mmHg 30%
    11:00 +29°C° 0 mm 4 m/S 662 mmHg 27%
    12:00 +30°C° 0 mm 4 m/S 662 mmHg 25%
    13:00 +30°C° 0 mm 5 m/S 661 mmHg 23%
    14:00 +30°C° 0 mm 7 m/S 661 mmHg 21%
    15:00 +31°C° 0 mm 9 m/S 661 mmHg 20%
    16:00 +29°C° 0 mm 10 m/S 661 mmHg 22%
    17:00 +28°C° 0 mm 11 m/S 661 mmHg 25%
    18:00 +26°C° 0 mm 11 m/S 660 mmHg 28%
    19:00 +24°C° 0 mm 12 m/S 661 mmHg 29%
    20:00 +23°C° 0 mm 12 m/S 661 mmHg 31%
    21:00 +21°C° 0 mm 12 m/S 662 mmHg 33%
    22:00 +19°C° 0 mm 11 m/S 662 mmHg 35%
    23:00 +19°C° 0 mm 10 m/S 662 mmHg 38%

    5 Juni, Freitag

    Zeit Temperatur Niederschläge Wind Luftdruck Luftfeuchtigkeit
    00:00 +18°C° 0 mm 9 m/S 662 mmHg 41%
    01:00 +17°C° 0 mm 9 m/S 661 mmHg 44%
    02:00 +17°C° 0 mm 9 m/S 661 mmHg 48%
    03:00 +16°C° 0 mm 9 m/S 661 mmHg 52%
    04:00 +16°C° 0 mm 8 m/S 661 mmHg 55%
    05:00 +16°C° 0 mm 8 m/S 662 mmHg 59%
    06:00 +16°C° 0 mm 8 m/S 662 mmHg 62%
    07:00 +18°C° 0 mm 8 m/S 662 mmHg 57%
    08:00 +20°C° 0 mm 8 m/S 663 mmHg 52%
    09:00 +22°C° 0 mm 8 m/S 664 mmHg 47%
    10:00 +23°C° 0 mm 7 m/S 664 mmHg 42%
    11:00 +24°C° 0 mm 7 m/S 664 mmHg 38%
    12:00 +26°C° 0 mm 7 m/S 665 mmHg 33%
    13:00 +27°C° 0 mm 6 m/S 665 mmHg 31%
    14:00 +27°C° 0 mm 6 m/S 665 mmHg 29%
    15:00 +28°C° 0 mm 6 m/S 664 mmHg 27%
    16:00 +28°C° 0 mm 6 m/S 665 mmHg 27%
    17:00 +27°C° 0 mm 6 m/S 665 mmHg 27%
    18:00 +27°C° 0 mm 6 m/S 665 mmHg 28%
    19:00 +26°C° 0 mm 6 m/S 665 mmHg 31%
    20:00 +25°C° 0 mm 5 m/S 665 mmHg 35%
    21:00 +23°C° 0 mm 5 m/S 666 mmHg 38%
    22:00 +22°C° 0 mm 5 m/S 666 mmHg 43%
    23:00 +21°C° 0 mm 4 m/S 666 mmHg 48%

    6 Juni, Samstag

    Zeit Temperatur Niederschläge Wind Luftdruck Luftfeuchtigkeit
    00:00 +20°C° 0 mm 3 m/S 665 mmHg 52%
    01:00 +20°C° 0 mm 2 m/S 665 mmHg 54%
    02:00 +20°C° 0 mm 1 m/S 665 mmHg 56%
    03:00 +18°C° 0 mm 0 m/S 665 mmHg 58%
    04:00 +21°C° 0 mm 1 m/S 665 mmHg 54%
    05:00 +21°C° 0 mm 1 m/S 666 mmHg 50%
    06:00 +21°C° 0 mm 2 m/S 666 mmHg 46%
    07:00 +24°C° 0 mm 3 m/S 666 mmHg 41%
    08:00 +25°C° 0 mm 4 m/S 667 mmHg 36%
    09:00 +27°C° 0 mm 5 m/S 667 mmHg 30%
    10:00 +28°C° 0 mm 6 m/S 667 mmHg 28%
    11:00 +30°C° 0 mm 7 m/S 667 mmHg 25%
    12:00 +32°C° 0 mm 8 m/S 667 mmHg 22%
    13:00 +33°C° 0 mm 8 m/S 667 mmHg 20%
    14:00 +33°C° 0 mm 8 m/S 666 mmHg 18%
    15:00 +34°C° 0 mm 8 m/S 666 mmHg 17%
    16:00 +34°C° 0 mm 8 m/S 665 mmHg 17%
    17:00 +33°C° 0 mm 8 m/S 665 mmHg 17%
    18:00 +33°C° 0 mm 8 m/S 665 mmHg 17%
    19:00 +32°C° 0 mm 7 m/S 665 mmHg 18%
    20:00 +30°C° 0 mm 7 m/S 665 mmHg 19%
    21:00 +29°C° 0 mm 6 m/S 665 mmHg 20%
    22:00 +28°C° 0 mm 6 m/S 665 mmHg 22%
    23:00 +27°C° 0 mm 5 m/S 664 mmHg 24%
    Mehr zeigen